Weather History for Windsor Locks, CT

Change the Weather History Date:

Saturday, February 18, 2012

  Actual Average Record
Temperature  
Mean Temperature 39 °F 30 °F  
Max Temperature 47 °F 39 °F 68 °F (1981)
Min Temperature 31 °F 22 °F -9 °F (1979)
Degree Days  
Heating Degree Days 26 35  
Month to date heating degree days 522 656  
Since 1 July heating degree days 3357 4106  
Cooling Degree Days 0 0  
Month to date cooling degree days 0 0  
Year to date cooling degree days 0 0  
Moisture  
Dew Point 22 °F    
Average Humidity 53    
Maximum Humidity 75    
Minimum Humidity 31    
Precipitation  
Precipitation 0.00 in 0.11 in 0.91 in (2008)
Month to date precipitation 0.14 1.84  
Year to date precipitation 3.10 5.07  
Snow  
Snow 0.00 in 0.40 in 6.30 in (1928)
Month to date snowfall T 7.7  
Since 1 July snowfall 19.1 29.4  
Snow Depth 0.00 in    
Sea Level Pressure  
Sea Level Pressure 29.95 in    
Wind  
Wind Speed 8 mph (West)    
Max Wind Speed 20 mph    
Max Gust Speed 24 mph    
Visibility 10 miles    
Events      
T = Trace of Precipitation, MM = Missing Value Source: NWS Daily Summary

Daily Weather History Graph

Daily Weather History Graph

Search for Another Location

Airport:

Trip Planner

Search our weather history database for the weather conditions in past years. The results will help you decide how hot, cold, wet, or windy it might be!

Date:

Astronomy

Feb. 18, 2012 Rise Set
Actual Time 6:43 AM EST 5:26 PM EST
Civil Twilight 6:14 AM EST 5:55 PM EST
Nautical Twilight 5:42 AM EST 6:27 PM EST
Astronomical Twilight 5:09 AM EST 7:00 PM EST
Moon 4:23 AM EST (2/18) 2:18 PM EST (2/18)
Length of Visible Light 11h 40m
Length of Day
10h 43m
Waning Crescent, 11% of the Moon is Illuminated
Feb 18
Waning Crescent
Feb 21
New
Feb 29
First Quarter
Mar 8
Full
Mar 14
Last Quarter

Hourly Weather History & Observations

Time (EST) Temp. Windchill Dew Point Humidity Pressure Visibility Wind Dir Wind Speed Gust Speed Precip Events Conditions
12:51 AM 33.1 °F 27.7 °F 23.0 °F 66% 29.96 in 10.0 mi NW 5.8 mph - N/A   Scattered Clouds
1:51 AM 34.0 °F 31.0 °F 23.0 °F 64% 29.97 in 10.0 mi WSW 3.5 mph - N/A   Mostly Cloudy
2:51 AM 34.0 °F 28.8 °F 21.9 °F 61% 29.98 in 10.0 mi WNW 5.8 mph - N/A   Mostly Cloudy
3:51 AM 35.1 °F 31.0 °F 19.9 °F 54% 29.99 in 10.0 mi NW 4.6 mph - N/A   Mostly Cloudy
4:51 AM 33.1 °F 26.1 °F 19.9 °F 59% 30.00 in 10.0 mi NW 8.1 mph - N/A   Mostly Cloudy
5:51 AM 32.0 °F 28.7 °F 19.0 °F 59% 30.01 in 10.0 mi West 3.5 mph - N/A   Partly Cloudy
6:51 AM 32.0 °F - 19.0 °F 59% 30.02 in 10.0 mi Calm Calm - N/A   Partly Cloudy
7:51 AM 35.1 °F 29.3 °F 21.0 °F 57% 30.04 in 10.0 mi WSW 6.9 mph - N/A   Scattered Clouds
8:51 AM 37.4 °F 32.1 °F 21.2 °F 52% 30.01 in 10.0 mi SW 6.9 mph - N/A   Scattered Clouds
9:51 AM 41.0 °F 33.1 °F 19.9 °F 43% 29.98 in 10.0 mi NW 15.0 mph - N/A   Scattered Clouds
10:51 AM 43.0 °F 38.8 °F 19.0 °F 38% 29.97 in 10.0 mi Variable 6.9 mph - N/A   Scattered Clouds
11:51 AM 46.0 °F 42.5 °F 18.0 °F 33% 29.94 in 10.0 mi WSW 6.9 mph - N/A   Mostly Cloudy
12:51 PM 45.0 °F 39.7 °F 17.1 °F 33% 29.91 in 10.0 mi SW 10.4 mph - N/A   Overcast
1:51 PM 45.0 °F 39.3 °F 18.0 °F 34% 29.89 in 10.0 mi WSW 11.5 mph - N/A   Overcast
2:51 PM 44.1 °F 37.1 °F 19.9 °F 38% 29.87 in 10.0 mi West 15.0 mph - N/A   Overcast
3:51 PM 45.0 °F 37.9 °F 18.0 °F 34% 29.87 in 10.0 mi SW 16.1 mph 21.9 mph N/A   Overcast
4:51 PM 43.0 °F 36.8 °F 19.9 °F 40% 29.86 in 10.0 mi WSW 11.5 mph 18.4 mph N/A   Scattered Clouds
5:51 PM 42.1 °F 36.6 °F 21.9 °F 45% 29.90 in 10.0 mi SW 9.2 mph - N/A   Overcast
6:51 PM 39.0 °F 33.4 °F 25.0 °F 57% 29.92 in 10.0 mi SW 8.1 mph - N/A   Scattered Clouds
7:51 PM 37.0 °F 31.0 °F 25.0 °F 62% 29.93 in 10.0 mi WSW 8.1 mph - N/A   Partly Cloudy
8:51 PM 39.0 °F 32.8 °F 27.0 °F 62% 29.94 in 10.0 mi WSW 9.2 mph - N/A   Mostly Cloudy
9:51 PM 37.0 °F 32.4 °F 28.9 °F 73% 29.94 in 10.0 mi West 5.8 mph - N/A   Scattered Clouds
10:51 PM 35.1 °F - 28.9 °F 78% 29.98 in 10.0 mi Calm Calm - N/A   Mostly Cloudy
11:51 PM 33.1 °F 27.7 °F 28.0 °F 82% 29.98 in 10.0 mi West 5.8 mph - N/A   Mostly Cloudy